Flag for Israel Weather past 2 weeks in Tel Aviv, Israel

Now
59 °F

Clear.


Feels Like: 60 °F
Forecast: 61 / 68 °F
Wind: 3 mph from North

Location: Ben Gurion International Airport

Current Time: Dec 18, 2014 at 11:01:25 PM

Latest Report: Dec 18, 2014 at 10:20 PM


Visibility: 10 mi

Pressure: 30.09 "Hg

Humidity: 77%

Dew point: 52 °F

Location of Tel AvivLocation

Historic Weather in Tel Aviv — Graph

°F

Tel Aviv temperature yesterday

Maximum temperature yesterday: 72 °F (at 12:20 PM)
Minimum temperature yesterday: 50 °F (at 5:50 AM)
Average temperature yesterday: 61 °F

Past Weeks' High & Low Weather Summary

 TemperatureHumidityPressure
High84 °F (Dec 4, 10:50 AM)94% (Dec 8, 3:50 AM)30.24 "Hg (Dec 8, 3:50 AM)
Low48 °F (Dec 16, 6:20 AM)35% (Dec 4, 2:20 PM)29.77 "Hg (Dec 9, 1:50 AM)
Average64 °F69%30.06 "Hg
* Reported Dec 3 9:20 PM — Dec 18 9:50 PM, Tel Aviv, Weather by CustomWeather, © 2014

Note: Actual official high and low records may vary slightly from our data, if they occured in-between our weather recording intervals... More about our weather records

Advertising

Tel Aviv weather history for previous 24 hours

 ConditionsComfort  
Time TempWeatherWind HumidityBarometerVisibility
9:50 PM
Dec 18
57 °FClear.5 mph82%30.07 "Hg10 mi
9:20 PM59 °FClear.3 mph77%30.07 "Hg10 mi
8:50 PM59 °FClear.1 mph72%30.07 "Hg10 mi
8:20 PM59 °FClear.1 mph72%30.07 "Hg10 mi
7:50 PM61 °FClear.9 mph72%30.04 "Hg10 mi
7:20 PM61 °FClear.2 mph77%30.07 "Hg10 mi
6:50 PM61 °FClear.3 mph72%30.07 "Hg10 mi
6:20 PM63 °FClear.2 mph73%30.07 "Hg10 mi
5:50 PM63 °FClear.3 mph68%30.07 "Hg10 mi
5:20 PM64 °FClear.1 mph64%30.04 "Hg10 mi
4:50 PM64 °FClear.1 mph64%30.04 "Hg10 mi
4:20 PM66 °FSunny.3 mph60%30.04 "Hg10 mi
3:50 PM68 °FSunny.1 mph56%30.04 "Hg10 mi
3:20 PM68 °FSunny.2 mph56%30.07 "Hg10 mi
2:50 PM68 °FSunny.6 mph56%30.07 "Hg10 mi
2:20 PM70 °FSunny.2 mph53%30.07 "Hg10 mi
1:50 PM70 °FSunny.5 mph50%30.07 "Hg10 mi
1:20 PM70 °FSunny.3 mph53%30.04 "Hg10 mi
12:20 PM70 °FSunny.3 mph50%30.07 "Hg10 mi
11:50 AM70 °FSunny.5 mph50%30.07 "Hg10 mi
11:20 AM68 °FSunny.5 mph53%30.07 "Hg10 mi
10:50 AM68 °FSunny.6 mph53%30.09 "Hg10 mi
10:20 AM68 °FSunny.1 mph56%30.09 "Hg10 mi
9:50 AM63 °FSunny.1 mph68%30.12 "Hg10 mi
9:20 AM61 °FSunny.2 mph68%30.12 "Hg10 mi
8:50 AM59 °FSunny.2 mph72%30.12 "Hg10 mi
8:20 AM55 °FSunny.8 mph82%30.09 "Hg10 mi
7:50 AM55 °FSunny.1 mph77%30.12 "Hg10 mi
7:20 AM54 °FSunny.2 mph77%30.09 "Hg10 mi
6:50 AM54 °FSunny.1 mph77%30.09 "Hg10 mi
6:20 AM54 °FClear.1 mph77%30.09 "Hg10 mi
5:20 AM54 °FClear.1 mph77%30.07 "Hg10 mi
4:50 AM54 °FClear.3 mph82%30.07 "Hg10 mi
4:20 AM54 °FClear.2 mph77%30.07 "Hg10 mi
3:50 AM55 °FClear.1 mph77%30.09 "Hg10 mi
3:20 AM55 °FClear.3 mph77%30.07 "Hg10 mi
2:50 AM55 °FClear.2 mph72%30.09 "Hg10 mi
2:20 AM55 °FClear.1 mph72%30.09 "Hg10 mi
1:50 AM55 °FClear.1 mph72%30.09 "Hg10 mi
1:20 AM55 °FClear.3 mph72%30.09 "Hg10 mi
12:50 AM54 °FClear.5 mph77%30.09 "Hg10 mi
12:20 AM55 °FClear.3 mph72%30.12 "Hg10 mi
11:50 PM
Dec 17
55 °FClear.3 mph72%30.12 "Hg10 mi
11:20 PM55 °FClear.1 mph72%30.12 "Hg10 mi
Weather by CustomWeather, © 2014

See weather overviewHow to use our weather pages